Weather in Kireyevskoye-Pervoye

Russia / Kaluga Oblast     53°54′00″N   35°55′31″E
temp.,
°C
wind,
m/s
gust,
m/s
humid.,
%
clouds,
%
prec.,
mm/h
press.,
hPa
HPBL,
m
16 june, wed
wed1600:00+15nw22940 0.0 101127
03:00+14nnw23955 0.0 101145
06:00+15nnw26930 0.0 1012186
09:00+20nnw34703 0.0 1013534
12:00+23n455999 0.0 10141354
15:00+23n455623 0.0 10141705
18:00+22n35661 0.2 1015775
21:00+16n37792 0.2 1017124
17 june, thu
thu1700:00+13nne37815 0.0 1019110
03:00+12ne35845 0.0 102182
06:00+13ne25770 0.0 1022135
09:00+18ne46570 0.0 1023487
12:00+22ne45475 0.0 10241420
15:00+23ne34475 0.0 10241541
18:00+21e35600 0.0 1024656
21:00+15e22770 0.0 102511
18 june, fri
fri1800:00+13ese11830 0.0 102610
03:00+12ne22820 0.0 102711
06:00+14ene13794 0.0 102875
09:00+20e23600 0.0 1028476
12:00+23ese34525 0.0 10281362
15:00+24ese34520 0.0 10271435
18:00+23se33645 0.0 1027996
21:00+17se22865 0.0 102713
19 june, sat
sat1900:00+15s229219 0.0 102812
03:00+13sse1191100 0.0 102910
06:00+15sse128748 0.0 102966
09:00+20sse22672 0.0 1029517
12:00+23sse345590 0.0 10281166
15:00+24sse34530 0.0 10271288
18:00+23sse23655 0.0 10261124
21:00+18sse22850 0.0 102711
20 june, sun
sun2000:00+16sse12910 0.0 102711
03:00+15s22937 0.0 102713
06:00+16sse12905 0.0 102777
09:00+21sse237016 0.0 1027589
12:00+24sse34575 0.0 10261159
15:00+25sse345573 0.0 10241328
18:00+24sse236444 0.0 10231081
21:00+19sse11836 0.0 102311